Location: Tel Aviv
(32.0670°N, 34.7670°E)
Time: 00:51:32
(UTC+02:00)

Envisat - Pass Details

Date: 30 November 2021
Orbit: 764 x 766 km, 98.2° (Epoch: 26 January)

Event Time Altitude Azimuth Distance (km) Brightness Sun altitude
Rises 05:03:36 0° 4° (N) 3,236 6.1 -16.6°
Reaches altitude 10° 05:05:59 10° 359° (N) 2,306 5.3 -16.1°
Maximum altitude 05:10:50 46° 287° (WNW) 1,014 3.2 -15.1°
Drops below altitude 10° 05:15:39 10° 214° (SW) 2,293 5.3 -14.1°
Sets 05:18:01 0° 209° (SSW) 3,215 6.1 -13.6°
